Home > Weather > Lahti > Past weeks

Flag for Finland Weather for the Past 2 Weeks in Lahti, Finland

Now
32 °F

Light freezing rain. Ice fog.


Feels Like: 22 °F
Forecast: 28 / 33 °F
Wind: 15 mph from Southeast

Location: Utti

Current Time: Feb 12, 2016 at 8:21:02 AM

Latest Report: Feb 12, 2016 at 6:50 AM


Visibility: 2 mi

Pressure: 29.36 "Hg

Humidity: 93%

Dew point: 30 °F

Location of LahtiLocation

Historic Weather in Lahti — Graph

°F

Lahti Temperature Yesterday

Maximum temperature yesterday: 36 °F (at 12:20 AM)
Minimum temperature yesterday: 32 °F (at 11:20 PM)
Average temperature yesterday: 35 °F

High & Low Weather Summary for the Past Weeks

 TemperatureHumidityPressure
High39 °F (Jan 30, 1:20 PM)100% (Jan 28, 6:50 AM)29.47 "Hg (Jan 28, 6:50 AM)
Low19 °F (Feb 3, 9:20 PM)75% (Jan 30, 1:20 PM)28.68 "Hg (Feb 2, 9:20 AM)
Average32 °F94%29.18 "Hg
* Reported Jan 28 6:50 AM — Feb 12 6:50 AM, Lahti, Weather by CustomWeather, © 2016

Note: Actual official high and low records may vary slightly from our data, if they occured in-between our weather recording intervals... More about our weather records

Advertising

Lahti Weather History for the Previous 24 Hours

 ConditionsComfort  
Time TempWeatherWind HumidityBarometerVisibility
6:50 AM
Fri, Feb 12
32 °FLight freezing rain. Ice fog.15 mph93%29.36 "Hg2 mi
6:20 AM32 °FLight freezing rain. Ice fog.16 mph93%29.39 "Hg2 mi
5:50 AM32 °FLight freezing rain. Low clouds.15 mph93%29.39 "Hg3 mi
5:20 AM30 °FLight snow. Low clouds.15 mph100%29.39 "Hg2 mi
4:50 AM32 °FLight snow. Low clouds.15 mph93%29.39 "Hg2 mi
4:20 AM32 °FLight snow. Low clouds.14 mph100%29.39 "Hg2 mi
3:50 AM32 °FLight snow. Low clouds.14 mph100%29.39 "Hg1 mi
3:20 AM32 °FSnow flurries. Low clouds.15 mph93%29.42 "Hg2 mi
2:50 AM32 °FLight snow. Low clouds.15 mph100%29.42 "Hg2 mi
2:20 AM32 °FLight rain. Low clouds.12 mph100%29.42 "Hg5 mi
1:50 AM32 °FLight rain. Low clouds.14 mph100%29.42 "Hg2 mi
1:20 AM32 °FLight rain. Low clouds.14 mph100%29.42 "HgN/A
12:50 AM32 °FSprinkles. Low clouds.15 mph100%29.42 "HgN/A
11:50 PM
Thu, Feb 11
32 °FLight rain. Low clouds.14 mph100%29.45 "Hg4 mi
11:20 PM32 °FLight rain. Low clouds.13 mph100%29.45 "Hg2 mi
10:50 PM34 °FLight rain. Low clouds.14 mph100%29.45 "Hg4 mi
10:20 PM34 °FLight rain. Low clouds.14 mph100%29.45 "Hg4 mi
9:50 PM34 °FLight rain. Low clouds.12 mph100%29.45 "Hg5 mi
9:20 PM34 °FLight rain. Low clouds.14 mph100%29.45 "HgN/A
8:50 PM34 °FLight rain. Low clouds.14 mph100%29.45 "Hg6 mi
8:20 PM36 °FLight rain. Low clouds.14 mph93%29.45 "Hg5 mi
7:50 PM36 °FLight rain. Low clouds.14 mph100%29.45 "Hg6 mi
7:20 PM36 °FLight rain. Low clouds.13 mph100%29.45 "Hg6 mi
6:50 PM36 °FLight rain. Low clouds.13 mph100%29.42 "Hg4 mi
6:20 PM36 °FLight rain. Low clouds.14 mph100%29.42 "Hg6 mi
5:50 PM36 °FLight rain. Low clouds.14 mph100%29.42 "Hg5 mi
5:20 PM36 °FLight rain. Low clouds.13 mph100%29.42 "HgN/A
4:50 PM36 °FLight rain. Low clouds.10 mph100%29.42 "Hg6 mi
4:20 PM36 °FLight rain. Low clouds.12 mph100%29.39 "Hg3 mi
3:50 PM36 °FDrizzle. Low clouds.12 mph100%29.42 "Hg4 mi
3:20 PM36 °FDrizzle. Low clouds.13 mph100%29.39 "Hg4 mi
2:50 PM36 °FDrizzle. Low clouds.12 mph100%29.39 "Hg4 mi
2:20 PM36 °FDrizzle. Low clouds.13 mph100%29.39 "Hg4 mi
1:50 PM36 °FDrizzle. Low clouds.13 mph93%29.39 "Hg4 mi
1:20 PM36 °FDrizzle. Low clouds.15 mph100%29.39 "Hg4 mi
12:50 PM36 °FDrizzle. Low clouds.15 mph100%29.39 "Hg4 mi
12:20 PM36 °FDrizzle. Low clouds.12 mph93%29.39 "Hg4 mi
11:50 AM34 °FDrizzle. Low clouds.12 mph100%29.39 "Hg4 mi
11:20 AM36 °FDrizzle. Low clouds.14 mph93%29.39 "Hg4 mi
10:50 AM34 °FDrizzle. Fog.12 mph100%29.39 "Hg2 mi
10:20 AM34 °FDrizzle. Low clouds.13 mph100%29.39 "Hg3 mi
9:50 AM36 °FDrizzle. Low clouds.14 mph93%29.39 "Hg3 mi
9:20 AM36 °FDrizzle. Fog.14 mph100%29.39 "Hg2 mi
8:50 AM36 °FDrizzle. Low clouds.12 mph100%29.39 "Hg4 mi
8:20 AM36 °FLight rain. Low clouds.13 mph93%29.39 "Hg4 mi
Weather by CustomWeather, © 2016

See weather overviewHow to use our weather pages